This is the latest recevied weather packets stored in our database for station/object KJ6BBX. If no packets are shown the sender has not sent any weather packets the latest 10 day(s).
| Time | Temp. | Humidity | Pressure | Rain* | Wind** | Luminosity | Snow |
|---|---|---|---|---|---|---|---|
| 1778141114 | 12.78° C | 88% | 1009.1 hPa | 0 mm | - | 0 W/m² | - |
| 1778140214 | 13.33° C | 87% | 1009.1 hPa | 0 mm | - | 0 W/m² | - |
| 1778139314 | 13.33° C | 87% | 1009.3 hPa | 0 mm | - | 0 W/m² | - |
| 1778138414 | 13.33° C | 87% | 1009.1 hPa | 0 mm | - | 0 W/m² | - |
| 1778137514 | 13.33° C | 86% | 1009.3 hPa | 0 mm | - | 0 W/m² | - |
| 1778136614 | 13.33° C | 85% | 1009.2 hPa | 0 mm | - | 0 W/m² | - |
| 1778135714 | 13.89° C | 83% | 1009.5 hPa | 0 mm | - | 0 W/m² | - |
| 1778134814 | 13.89° C | 82% | 1009.2 hPa | 0 mm | - | 0 W/m² | - |
| 1778133915 | 13.89° C | 82% | 1009.6 hPa | 0 mm | - | 0 W/m² | - |
| 1778133014 | 14.44° C | 81% | 1009.4 hPa | 0 mm | - | 0 W/m² | - |
| 1778132114 | 14.44° C | 80% | 1009.3 hPa | 0 mm | - | 0 W/m² | - |
| 1778131214 | 14.44° C | 80% | 1009.6 hPa | 0 mm | - | 0 W/m² | - |
| 1778130314 | 15° C | 80% | 1009.2 hPa | 0 mm | - | 0 W/m² | - |
| 1778129414 | 15° C | 80% | 1009.4 hPa | 0 mm | - | 0 W/m² | - |
| 1778128515 | 15° C | 79% | 1009.2 hPa | 0 mm | - | 0 W/m² | - |
| 1778127614 | 15° C | 78% | 1009 hPa | 0 mm | - | 0 W/m² | - |
| 1778126714 | 15.56° C | 78% | 1008.9 hPa | 0 mm | - | 0 W/m² | - |
| 1778125814 | 15.56° C | 78% | 1008.9 hPa | 0 mm | - | 0 W/m² | - |
| 1778124914 | 16.11° C | 77% | 1008.6 hPa | 0 mm | - | 0 W/m² | - |
| 1778124014 | 16.11° C | 76% | 1008.6 hPa | 0 mm | - | 0 W/m² | - |
| 1778123114 | 16.67° C | 74% | 1008.5 hPa | 0 mm | - | 0 W/m² | - |
| 1778122215 | 17.22° C | 73% | 1008.5 hPa | 0 mm | - | 0 W/m² | - |
| 1778121314 | 17.78° C | 70% | 1008.5 hPa | 0 mm | - | 2 W/m² | - |
| 1778120414 | 17.78° C | 67% | 1008.3 hPa | 0 mm | - | 9 W/m² | - |
| 1778119514 | 18.89° C | 67% | 1008 hPa | 0 mm | - | 15 W/m² | - |
* Rain since midnight (hover to see other rain measurements)
** Current wind speed in m/s (hover to see current wind gust speed)